Oakes, ND

10:42 PM CDT on April 30, 2017 (GMT -0500)
Oakes

Weather History for K2D5 - October, 2012

Change the Weather History Date:

Sunday, October 21, 2012

  Actual Average (KP67) Record (KP67)
Temperature  
Mean Temperature 46 °F -  
Max Temperature 53 °F 51 °F 41 °F (1996)
Min Temperature 39 °F 30 °F 27 °F (1997)
Degree Days  
Heating Degree Days 19    
Moisture  
Dew Point 43 °F    
Average Humidity 88    
Maximum Humidity 100    
Minimum Humidity 58    
Precipitation  
Precipitation 0.00 in - - ()
Sea Level Pressure  
Sea Level Pressure 29.84 in    
Wind  
Wind Speed 11 mph (NNE)    
Max Wind Speed 23 mph    
Max Gust Speed 30 mph    
Visibility 8 miles    
Events      
Averages and records for this station are not official NWS values.
T = Trace of Precipitation, MM = Missing Value Source: NWS Daily Summary

Daily Weather History Graph

Daily Weather History Graph

Search for Another Location

Airport or City:

Trip Planner

Search our weather history database for the weather conditions in past years. The results will help you decide how hot, cold, wet, or windy it might be!

Date:

Astronomy

Oct. 21, 2012 Rise Set
Actual Time 7:58 AM CDT 6:34 PM CDT
Civil Twilight 7:27 AM CDT 7:05 PM CDT
Nautical Twilight 6:52 AM CDT 7:39 PM CDT
Astronomical Twilight 6:18 AM CDT 8:14 PM CDT
Moon 2:26 PM CDT (10/21) No Moon Set
Length of Visible Light 11h 37m
Length of Day
10h 36m
Waxing Crescent, 45% of the Moon is Illuminated
Oct 21
Waxing Crescent
Oct 21
First Quarter
Oct 29
Full
Nov 6
Last Quarter
Nov 13
New

Hourly Weather History & Observations

Time (CDT) Temp. Windchill Dew Point Humidity Pressure Visibility Wind Dir Wind Speed Gust Speed Precip Events Conditions
12:35 AM 46.4 °F 41.9 °F 46.4 °F 100% 29.66 in 10.0 mi ESE 9.2 mph - N/A   Scattered Clouds
1:15 AM 46.4 °F 42.9 °F 46.4 °F 100% 29.67 in 8.0 mi ENE 6.9 mph - N/A   Mostly Cloudy
1:35 AM 44.6 °F 39.7 °F 44.6 °F 100% 29.66 in 7.0 mi ENE 9.2 mph - N/A   Scattered Clouds
1:55 AM 44.6 °F 40.2 °F 44.6 °F 100% 29.67 in 7.0 mi ENE 8.1 mph - N/A   Clear
2:15 AM 44.6 °F 40.2 °F 44.6 °F 100% 29.67 in 6.0 mi NE 8.1 mph - N/A   Clear
2:35 AM 44.6 °F 40.2 °F 44.6 °F 100% 29.69 in 7.0 mi North 8.1 mph - N/A   Clear
2:55 AM 44.6 °F 40.2 °F 44.6 °F 100% 29.69 in 6.0 mi NNE 8.1 mph - N/A   Partly Cloudy
3:15 AM 44.6 °F 39.2 °F 44.6 °F 100% 29.68 in 5.0 mi ENE 10.4 mph - N/A   Partly Cloudy
3:35 AM 44.6 °F 38.8 °F 44.6 °F 100% 29.67 in 5.0 mi ENE 11.5 mph - N/A   Partly Cloudy
3:55 AM 44.6 °F 40.2 °F 44.6 °F 100% 29.68 in 4.0 mi ENE 8.1 mph - N/A   Scattered Clouds
4:15 AM 44.6 °F 38.8 °F 44.6 °F 100% 29.66 in 4.0 mi ENE 11.5 mph - N/A   Partly Cloudy
4:35 AM 44.6 °F 40.2 °F 44.6 °F 100% 29.68 in 4.0 mi ENE 8.1 mph - N/A   Clear
5:15 AM 44.6 °F 39.2 °F 44.6 °F 100% 29.68 in 5.0 mi ENE 10.4 mph - N/A   Clear
5:55 AM 42.8 °F 36.2 °F 42.8 °F 100% 29.68 in 5.0 mi East 12.7 mph - N/A   Clear
6:15 AM 42.8 °F 35.8 °F 42.8 °F 100% 29.68 in 5.0 mi ENE 13.8 mph - N/A   Clear
6:35 AM 41.0 °F 34.3 °F 41.0 °F 100% 29.69 in 5.0 mi ENE 11.5 mph - N/A   Clear
6:55 AM 41.0 °F 35.8 °F 41.0 °F 100% 29.70 in 5.0 mi NE 8.1 mph - N/A   Clear
7:15 AM 41.0 °F 35.8 °F 41.0 °F 100% 29.71 in 6.0 mi East 8.1 mph - N/A   Clear
7:35 AM 41.0 °F 38.0 °F 41.0 °F 100% 29.71 in 5.0 mi East 4.6 mph - N/A   Clear
7:55 AM 39.2 °F 32.5 °F 39.2 °F 100% 29.72 in 4.0 mi NNW 10.4 mph - N/A   Clear
8:15 AM 41.0 °F 37.1 °F 41.0 °F 100% 29.72 in 4.0 mi NNE 5.8 mph - N/A   Mostly Cloudy
8:35 AM 41.0 °F 35.2 °F 41.0 °F 100% 29.72 in 4.0 mi NNE 9.2 mph - N/A   Overcast
8:55 AM 41.0 °F 35.8 °F 41.0 °F 100% 29.75 in 4.0 mi North 8.1 mph - N/A   Overcast
9:15 AM 41.0 °F 34.7 °F 41.0 °F 100% 29.75 in 4.0 mi NNE 10.4 mph - N/A   Overcast
9:35 AM 42.8 °F 38.0 °F 42.8 °F 100% 29.78 in 5.0 mi NW 8.1 mph - N/A   Overcast
9:55 AM 44.6 °F 40.2 °F 44.6 °F 100% 29.78 in 5.0 mi NNW 8.1 mph - N/A   Overcast
10:15 AM 44.6 °F 39.2 °F 44.6 °F 100% 29.78 in 4.0 mi North 10.4 mph - N/A   Overcast
10:35 AM 44.6 °F 37.8 °F 44.6 °F 100% 29.79 in 7.0 mi NNW 15.0 mph - N/A   Mostly Cloudy
10:55 AM 46.4 °F 42.4 °F 46.4 °F 100% 29.79 in 7.0 mi North 8.1 mph - N/A   Partly Cloudy
11:15 AM 46.4 °F 41.5 °F 46.4 °F 100% 29.80 in 9.0 mi NNW 10.4 mph - N/A   Clear
11:35 AM 50.0 °F - 50.0 °F 100% 29.80 in 10.0 mi North 12.7 mph - N/A   Clear
11:55 AM 53.6 °F - 50.0 °F 88% 29.80 in 10.0 mi North 13.8 mph - N/A   Clear
12:15 PM 53.6 °F - 50.0 °F 88% 29.81 in 10.0 mi NNW 23.0 mph - N/A   Mostly Cloudy
12:35 PM 53.6 °F - 50.0 °F 88% 29.82 in 10.0 mi NNW 19.6 mph 29.9 mph N/A   Overcast
12:55 PM 53.6 °F - 46.4 °F 77% 29.85 in 10.0 mi North 20.7 mph 28.8 mph N/A   Scattered Clouds
1:15 PM 53.6 °F - 44.6 °F 72% 29.84 in 10.0 mi North 21.9 mph 28.8 mph N/A   Clear
1:35 PM 53.6 °F - 44.6 °F 72% 29.85 in 10.0 mi North 18.4 mph - N/A   Clear
1:55 PM 53.6 °F - 41.0 °F 62% 29.87 in 10.0 mi North 23.0 mph 28.8 mph N/A   Scattered Clouds
2:15 PM 53.6 °F - 41.0 °F 62% 29.86 in 10.0 mi North 23.0 mph 27.6 mph N/A   Partly Cloudy
2:35 PM 53.6 °F - 41.0 °F 62% 29.87 in 10.0 mi North 20.7 mph 26.5 mph N/A   Clear
2:55 PM 53.6 °F - 39.2 °F 58% 29.87 in 10.0 mi North 21.9 mph 25.3 mph N/A   Clear
3:15 PM 53.6 °F - 41.0 °F 62% 29.88 in 10.0 mi North 21.9 mph - N/A   Clear
3:35 PM 53.6 °F - 41.0 °F 62% 29.89 in 10.0 mi North 18.4 mph - N/A   Clear
3:55 PM 51.8 °F - 39.2 °F 62% 29.90 in 10.0 mi North 19.6 mph - N/A   Clear
4:15 PM 50.0 °F - 39.2 °F 66% 29.90 in 10.0 mi North 17.3 mph - N/A   Clear
4:35 PM 50.0 °F - 39.2 °F 66% 29.91 in 10.0 mi North 11.5 mph - N/A   Clear
4:55 PM 50.0 °F - 39.2 °F 66% 29.93 in 10.0 mi North 15.0 mph - N/A   Clear
5:15 PM 50.0 °F - 41.0 °F 71% 29.93 in 10.0 mi North 15.0 mph - N/A   Clear
5:35 PM 48.2 °F - 41.0 °F 76% 29.94 in 10.0 mi North 11.5 mph - N/A   Clear
5:55 PM 48.2 °F - 41.0 °F 76% 29.94 in 10.0 mi North 10.4 mph - N/A   Partly Cloudy
6:15 PM 48.2 °F - 41.0 °F 76% 29.96 in 10.0 mi North 8.1 mph - N/A   Partly Cloudy
6:35 PM 48.2 °F - 41.0 °F 76% 29.97 in 10.0 mi NNE 6.9 mph - N/A   Clear
6:55 PM 48.2 °F - 41.0 °F 76% 29.97 in 10.0 mi North 9.2 mph - N/A   Clear
7:15 PM 46.4 °F 42.4 °F 41.0 °F 81% 29.99 in 10.0 mi North 8.1 mph - N/A   Partly Cloudy
7:35 PM 46.4 °F 42.9 °F 41.0 °F 81% 29.99 in 10.0 mi North 6.9 mph - N/A   Partly Cloudy
7:55 PM 46.4 °F 42.4 °F 41.0 °F 81% 29.99 in 10.0 mi North 8.1 mph - N/A   Clear
8:15 PM 46.4 °F 42.4 °F 41.0 °F 81% 30.00 in 10.0 mi North 8.1 mph - N/A   Clear
8:35 PM 44.6 °F 40.7 °F 41.0 °F 87% 30.00 in 10.0 mi North 6.9 mph - N/A   Clear
8:55 PM 44.6 °F 41.4 °F 41.0 °F 87% 30.00 in 10.0 mi NNW 5.8 mph - N/A   Clear
9:15 PM 44.6 °F 40.2 °F 41.0 °F 87% 30.01 in 10.0 mi NNW 8.1 mph - N/A   Clear
9:35 PM 42.8 °F 39.3 °F 41.0 °F 93% 30.02 in 10.0 mi NNW 5.8 mph - N/A   Partly Cloudy
9:55 PM 41.0 °F 37.1 °F 39.2 °F 93% 30.02 in 10.0 mi NNW 5.8 mph - N/A   Partly Cloudy
10:15 PM 41.0 °F 35.8 °F 41.0 °F 100% 30.03 in 10.0 mi North 8.1 mph - N/A   Partly Cloudy
10:35 PM 42.8 °F 38.0 °F 41.0 °F 93% 30.04 in 10.0 mi NNW 8.1 mph - N/A   Mostly Cloudy
10:55 PM 42.8 °F 37.5 °F 41.0 °F 93% 30.04 in 10.0 mi North 9.2 mph - N/A   Partly Cloudy
11:15 PM 42.8 °F 37.5 °F 39.2 °F 87% 30.03 in 10.0 mi North 9.2 mph - N/A   Partly Cloudy
11:35 PM 42.8 °F 36.6 °F 39.2 °F 87% 30.03 in 10.0 mi North 11.5 mph - N/A   Mostly Cloudy
11:55 PM 42.8 °F 38.0 °F 41.0 °F 93% 30.04 in 10.0 mi North 8.1 mph - N/A   Overcast